McConnell AFB, KS

3:24 PM CDT on September 22, 2019 (GMT -0500)
McConnell Air Force Base

Weather History for KIAB - May, 2019

Change the Weather History Date:

Sunday, May 19, 2019

  Actual Average Record
Temperature  
Mean Temperature 62 °F -  
Max Temperature 69 °F 74 °F 96 °F (2006)
Min Temperature 55 °F 55 °F 48 °F (2002)
Degree Days  
Heating Degree Days 4    
Growing Degree Days 12 (Base 50)    
Moisture  
Dew Point 49 °F    
Average Humidity 66    
Maximum Humidity 85    
Minimum Humidity 47    
Precipitation  
Precipitation 0.00 in - - ()
Sea Level Pressure  
Sea Level Pressure 29.86 in    
Wind  
Wind Speed 8 mph (WNW)    
Max Wind Speed 17 mph    
Max Gust Speed 23 mph    
Visibility 10 miles    
Events      
Averages and records for this station are not official NWS values.
T = Trace of Precipitation, MM = Missing Value Source: NWS Daily Summary

Daily Weather History Graph

Daily Weather History Graph

Search for Another Location

Airport or City:

Astronomy

May. 19, 2019 Rise Set
Actual Time 6:16 AM CDT 8:34 PM CDT
Civil Twilight 5:46 AM CDT 9:04 PM CDT
Nautical Twilight 5:10 AM CDT 9:41 PM CDT
Astronomical Twilight 4:30 AM CDT 10:21 PM CDT
Moon 9:36 PM CDT (5/19) 7:02 AM CDT (5/19)
Length of Visible Light 15h 17m
Length of Day
14h 18m
Full, 99% of the Moon is Illuminated
May 19
Full
May 26
Last Quarter
Jun 3
New
Jun 10
First Quarter
Jun 17
Full

Hourly Weather History & Observations

Time (CDT) Temp. Dew Point Humidity Pressure Visibility Wind Dir Wind Speed Gust Speed Precip Events Conditions
12:05 AM 57.2 °F 51.8 °F 82% 29.65 in 10.0 mi North 5.8 mph - N/A   Overcast
12:06 AM 57.2 °F 51.8 °F 82% 29.65 in 10.0 mi North 4.6 mph - N/A   Overcast
12:56 AM 56.3 °F 51.8 °F 85% 29.66 in 10.0 mi Calm Calm - N/A   Scattered Clouds
1:56 AM 56.5 °F 51.4 °F 83% 29.68 in 10.0 mi West 8.1 mph - N/A   Mostly Cloudy
2:56 AM 56.5 °F 51.1 °F 82% 29.68 in 10.0 mi West 11.5 mph - N/A   Scattered Clouds
3:56 AM 56.7 °F 51.3 °F 82% 29.69 in 10.0 mi West 11.5 mph - N/A   Partly Cloudy
4:56 AM 57.2 °F 50.4 °F 78% 29.72 in 10.0 mi WNW 11.5 mph - N/A   Overcast
5:56 AM 56.3 °F 50.2 °F 80% 29.76 in 10.0 mi West 11.5 mph 20.7 mph N/A   Clear
6:56 AM 55.9 °F 50.9 °F 83% 29.80 in 10.0 mi West 11.5 mph - N/A   Clear
7:56 AM 57.0 °F 48.0 °F 72% 29.83 in 10.0 mi WNW 17.3 mph 21.9 mph N/A   Clear
8:56 AM 57.6 °F 45.1 °F 63% 29.88 in 10.0 mi WNW 16.1 mph 23.0 mph N/A   Clear
9:56 AM 58.8 °F 45.0 °F 60% 29.90 in 10.0 mi West 12.7 mph 21.9 mph N/A   Clear
10:56 AM 60.8 °F 45.5 °F 57% 29.93 in 10.0 mi West 10.4 mph 18.4 mph N/A   Clear
11:56 AM 62.4 °F 46.6 °F 56% 29.95 in 10.0 mi West 12.7 mph - N/A   Clear
12:56 PM 63.9 °F 46.4 °F 53% 29.94 in 10.0 mi West 15.0 mph 18.4 mph N/A   Clear
1:56 PM 65.8 °F 47.1 °F 51% 29.94 in 10.0 mi WNW 16.1 mph 21.9 mph N/A   Clear
2:56 PM 67.1 °F 46.2 °F 47% 29.96 in 10.0 mi WNW 8.1 mph - N/A   Partly Cloudy
3:56 PM 67.6 °F 48.4 °F 50% 29.97 in 10.0 mi NNW 5.8 mph - N/A   Partly Cloudy
4:56 PM 68.4 °F 48.9 °F 50% 29.95 in 10.0 mi West 5.8 mph - N/A   Clear
5:56 PM 68.5 °F 47.5 °F 47% 29.94 in 10.0 mi WSW 3.5 mph - N/A   Clear
6:56 PM 68.2 °F 47.1 °F 47% 29.93 in 10.0 mi Calm Calm - N/A   Clear
7:56 PM 65.8 °F 47.7 °F 52% 29.93 in 10.0 mi Calm Calm - 0.00 in   Clear
8:56 PM 63.7 °F 49.1 °F 59% 29.95 in 10.0 mi NE 4.6 mph - N/A   Clear
9:56 PM 59.4 °F 50.0 °F 71% 29.97 in 10.0 mi NE 4.6 mph - N/A   Clear
10:56 PM 57.7 °F 49.1 °F 73% 29.99 in 10.0 mi NE 5.8 mph - N/A   Clear
11:56 PM 58.3 °F 49.3 °F 72% 30.00 in 10.0 mi ENE 9.2 mph - N/A   Clear